Regional Weather Roundup
Issued by NWS State College, PA

Home | Current Version | Previous Version | Graphics & Text | Print | Product List | Glossary Off
Versions: 1 2 3 4 5 6 7 8 9 10 11 12 13 14 15 16 17 18 19 20 21 22 23 24 25 26 27 28 29 30 31 32 33 34 35 36 37 38 39 40 41 42 43 44 45 46 47 48 49 50

000
ASUS41 KCTP 032110
RWRCTP

REGIONAL WEATHER ROUNDUP
NATIONAL WEATHER SERVICE STATE COLLEGE PA
500 PM EDT TUE MAY 03 2016

Note: "fair" indicates few or no clouds below 12,000 feet with no
significant weather and/or obstructions to visibility.

* = STATION THAT DOES NOT REPORT PRECIPITATION /E.G. RAIN...SNOW...ETC/
    THUNDER OR FOG.

PAZ002>004-007>009-013>016-020>023-029>032-032200-
WESTERN PENNSYLVANIA

CITY           SKY/WX    TMP DP  RH WIND       PRES   REMARKS
ERIE           SUNNY     50  41  71 NW9       29.84F
MEADVILLE      CLOUDY    55  42  61 VRB3      29.80F
FRANKLIN*      MOSUNNY   59  41  51 W9        29.82S
NEW CASTLE     MOCLDY    60  42  51 NW7       29.81F
BEAVER COUNTY  PTSUNNY   59  43  55 NW5       29.80F
BUTLER*        MOSUNNY   61  43  51 NW7       29.82F
PITTSBURGH INT CLOUDY    62  40  44 NW12      29.79F
PITTSBURGH     CLOUDY    62  40  44 MISG      29.78F
INDIANA*       CLOUDY    63  43  48 NW9G16    29.81S
LATROBE        PTSUNNY   63  45  51 W6        29.79F
WASHINGTON CO* CLOUDY    61  43  51 NW8       29.81S
$$

PAZ004>006-010>012-017>019-024>028-033>037-041-042-045-046-049>053-032200-
CENTRAL PENNSYLVANIA

CITY           SKY/WX    TMP DP  RH WIND       PRES   REMARKS
BRADFORD       CLOUDY    50  45  83 N9        29.79S
DUBOIS         CLOUDY    58  39  49 W8        29.76F
CLEARFIELD     CLOUDY    62  40  44 NW13      29.77S
JOHNSTOWN      CLOUDY    59  40  49 W12       29.78S
ALTOONA        CLOUDY    65  44  46 NW6       29.75F
STATE COLLEGE  CLOUDY    61  50  67 N6        29.76F
WILLIAMSPORT   CLOUDY    56  47  71 S5        29.79F
SELINSGROVE    PTSUNNY   57  51  80 NE7       29.79F
FT INDIANTOWN  MOSUNNY   61  55  82 VRB3      29.78F
CAPITAL CITY   PTSUNNY   64  53  67 SE8       29.77S
HARRISBURG     PTSUNNY   65  55  70 SE7       29.77S
YORK           MOSUNNY   63  54  72 E7        29.76F
$$

PAZ038>040-043-044-047-048-054-055-060>062-067>071-032200-
EASTERN PENNSYLVANIA

CITY           SKY/WX    TMP DP  RH WIND       PRES   REMARKS
SCRANTON       CLOUDY    50  49  96 W6        29.80S FOG
MOUNT POCONO   CLOUDY    49  46  90 CALM      29.80S FOG
ALLENTOWN      CLOUDY    56  51  84 NE5       29.80F HAZE
QUAKERTOWN*    CLOUDY    55  54  94 CALM      29.81S
READING        CLOUDY    58  51  78 CALM      29.79S
LANCASTER      CLOUDY    58  54  86 E5        29.78F
COATESVILLE    CLOUDY    57 N/A N/A NE3       29.80F
POTTSTOWN      CLOUDY    56  52  86 E3        29.81S
BLUE BELL      CLOUDY    54  50  87 E5        29.80R
DOYLESTOWN     CLOUDY    54  52  93 N3        29.80R
WILLOW GROVE   NOT AVBL
NORTH PHILA    CLOUDY    58  52  80 E8        29.82S
PHILADELPHIA   CLOUDY    58  51  78 NE9       29.80F
$$




USA.gov is the U.S. government's official web portal to all federal, state and local government web resources and services.